Breeders Fall Classic - 350 MILE FINAL

Station: Woodbine Georgia - A Race

Distance: 348.31 Miles

Release: 26-Oct-2019 07:45

Weather Release:    Arrival: CLDY

Wind at Release: EAST @ 6     Wind at Arrival: EAST @ 6

Temp at Release: 71°    Temp at Arrival: 61°

Lofts: 111

Birds: 339

Clocked: 246

Good Luck to Everyone!
Drops Pos Breeder Pigeon Name Color Sex Ent Arrival Speed To Win Elg PdColored
26,500 1 Cherokee Loft - MI 0508-AU19-CHEK BC H 1 16:59:36.00 1105.347 00:00:00 Yes
26,500 2 Red Ass Ranch - TX 0402-AU19-RAR BBPN H 1 16:59:37.00 1105.314 00:00:01 Yes
10,000 3 J & M Partridge Loft - CA 1702-AU19-PASO BB 0 1 17:12:08.70 1080.897 00:12:33 Yes
7,000 4 Kolvenbag & Son - PA 1319-IF19-KOLV BB H 1 17:12:09.10 1080.885 00:12:33 Yes
5,000 5 Gold Country Challenge - CA 0258-AU19-HANG BB H 1 17:12:10.00 1080.856 00:12:34 Yes
3,000 6 Sanborn Loft - OH 0501-AU19-IHC BB H 1 17:12:11.60 1080.805 00:12:36 Yes
3,000 7 Tim Byers - OH 9122-AU19-BUCK BCPW H 1 17:12:11.90 1080.796 00:12:36 Yes
3,000 8 Lone Oak Loft - TX 0116-AU19-LOL PK-S.Kiara-4 BB H 1 17:12:12.50 1080.777 00:12:36 Yes
3,000 8 Tim Byers - OH 9117-AU19-BUCK BBPD H 2 17:12:12.50 1080.777 00:12:36 Yes
3,000 10 Bruce Daehn - FL 0140-AU19-NWFI CHWF H 1 17:12:13.00 1080.761 00:12:37 Yes
1;000 11 K T Loft - IN 0473-AU19-KTLF BBPW H 1 17:12:14.10 1080.726 00:12:38 Yes
1675 12 Mike Hines - SD 9150-AU19-GPF RC H 1 17:12:14.50 1080.713 00:12:39 Yes
1,000 13 Crazy Als Lofts - CO 5654-AU19-CRAZ DC H 1 17:12:15.00 1080.697 00:12:39 Yes
1,000 14 De La O/Sino/Baro - CA 9093-AU19-COOK BC H 1 17:12:18.50 1080.586 00:12:43 Yes
1,000 15 Jimmy Zheng Loft - MS 0829-AU19-ZHEN BB H 1 17:21:24.80 1063.517 00:21:49 Yes
500 16 Iditarod Loft - MT 17276-AU19-AA BC H 1 17:21:25.20 1063.505 00:21:49 Yes
500 17 Lazy A C Loft - IN 0458-AU19-LAZY BB H 1 17:21:26.70 1063.459 00:21:51 Yes
500 18 Kolvenbag & Son - PA 1344-IF19-KOLV BC 0 2 17:21:28.10 1063.416 00:21:52 Yes
500 19 Irishsyndicatelofts - AZ 0712-IF19-IRIS BBPW H 1 17:21:30.20 1063.351 00:21:54 Yes
500 20 K T Loft - IN 0432-AU19-KTLF BC H 2 17:21:30.30 1063.348 00:21:54 Yes
300 21 Cross Creek Loft Of Nc - NC 9506-AU19-MAC BB H 1 17:21:31.70 1063.305 00:21:56 Yes
300 22 Goldstar & Angel Loft - IL 6930-AU19-STAR Blue Ridge Blue BB H 1 17:21:34.30 1063.225 00:21:58 Yes
300 23 3 Stars & A Sun Loft - TX 0413-AU19-STAR BCWF H 1 17:21:36.90 1063.145 00:22:01 Yes
300 24 Walters Loft - NJ 27506-AU19-ARPU SR-71 DC H 1 17:22:53.50 1060.797 00:23:17 Yes
300 25 Rodney Morris - ON 19184-CU19-CRPU GRIZ H 1 17:27:29.70 1052.413 00:27:54 Yes
26 Abilene Loft - OH 1301-AU19-MVS BBPW H 1 17:29:16.80 1049.198 00:29:41 Yes
27 Salvicon - AZ 1073-IF19-FCON BC H 1 17:43:24.00 1024.441 00:43:48 Yes
28 Si Se Puede Loft - TX 1919-AU19-SISE BMW-3 BBWF H 1 18:00:12.90 996.441 01:00:37 Yes
29 Avelino Loft - CA 0327-AU19-HAN BB H 1 18:00:21.10 996.220 01:00:45 Yes
30 Kolvenbag & Son - PA 1327-IF19-KOLV BCWF H 3 18:00:58.00 995.225 01:01:22 Yes
31 Spirit Loft - NE 2709-AU19-OMHA BB H 1 18:01:03.30 995.083 01:01:27 Yes
32 Era Loft - NY 0625-AU19-BUF BC H 1 18:03:48.70 990.650 01:04:13 Yes
33 Tim Byers - OH 9125-AU19-BUCK SLWF H 3 18:03:49.60 990.626 01:04:14 Yes
34 Torresloft - NC 0707-IF19-TRC BB H 1 18:03:51.80 990.567 01:04:16 Yes
35 M D C Loft - OR 1066-AU19-MDC Klaas+Klaas DC H 1 18:03:52.20 990.556 01:04:16 Yes
36 Elton Dinga - TX 16141-AU19-AA Klaas 1008 x Klaas 303 BB H 1 18:03:54.80 990.487 01:04:19 Yes
37 Cherokee Loft - MI 0512-AU19-CHEK BB H 2 18:04:01.70 990.303 01:04:26 Yes
38 Irishsyndicatelofts - AZ 0498-IF19-IRIS BBSP H 2 18:05:48.70 987.458 01:06:13 Yes
39 Dan & Greg Coury - AZ 0377-AU19-AONE 2206+314 Tickens Toy BC H 1 18:20:33.70 964.541 01:20:58 Yes
40 Mike Hines - SD 9168-AU19-GPF BB H 2 18:25:17.40 957.419 01:25:41 Yes
41 Zekes - NY 70809-AU19-ARPU H 1 18:25:18.90 957.381 01:25:43 Yes
42 Wolf Den & Family Loft - IL 0024-AU19-FAM BB H 1 18:25:20.00 957.354 01:25:44 Yes
43 King Brand Syndicate - IA 66511-AU19-ARPU BBWF H 1 18:25:31.30 957.072 01:25:55 Yes
44 Cloux Loft - CO 9720-AU19-FH RC H 1 18:32:32.50 946.697 01:32:56 Yes
45 Tim Byers - OH 9123-AU19-BUCK RC H 4 18:32:40.90 946.492 01:33:05 Yes
250 46 Dehesa Valley Classic - CA 19014-AU19-PUEB SILV H 1 2019-10-27 08:42:39.70 796.004 03:35:32 Yes
47 Marengo Creek Farms - AL 3277-AU19-MCF BB H 1 2019-10-27 08:42:56.90 795.708 03:35:49 Yes
48 Si Se Puede Loft - TX 1939-AU19-SISE BMW-4 BBSP H 2 2019-10-27 08:47:11.70 791.346 03:40:04 Yes
49 Genesis Syndicate Loft - AZ 0737-AU19-GENS BBSP H 1 2019-10-27 09:03:08.00 775.393 03:56:00 Yes
50 Hale Nūnū - VA 0004-IF19-NUNU BB H 1 2019-10-27 09:03:57.60 774.583 03:56:50 Yes
51 Lin's Loft - CT 0005-AU19-LIN BB H 1 2019-10-27 09:04:24.70 774.141 03:57:17 Yes
52 Zekes - NY 70891-AU19-ARPU BB H 2 2019-10-27 09:04:34.10 773.988 03:57:26 Yes
53 James Erg - NE 9562-AU19-PV DCPW 0 1 2019-10-27 09:06:00.30 772.587 03:58:52 Yes
54 Elton Dinga - TX 16131-AU19-AA Hebberecht x Schaerlaecke BC H 2 2019-10-27 09:07:48.40 770.836 04:00:40 Yes
55 Cloux Loft - CO 9718-AU19-FH BBWF H 2 2019-10-27 09:11:26.60 767.327 04:04:19 Yes
56 Do Drop In Loft - NC 0042-IF19-TRC Freak SLWF H 1 2019-10-27 09:11:27.70 767.310 04:04:20 Yes
57 Tim Byers - OH 9119-AU19-BUCK RC H 5 2019-10-27 09:11:34.40 767.203 04:04:26 Yes
58 Tim Byers - OH 9124-AU19-BUCK CHCK H 6 2019-10-27 09:17:40.70 761.385 04:10:33 Yes
59 Double J Racing Loft - OH 0003-AU19-DJRL BB H 1 2019-10-27 09:20:05.10 759.116 04:12:57 Yes
60 Thunder Birds/Rodriguez Breeding Loft - TX 19051-AU19-WIN Magic Boltage BC H 1 2019-10-27 09:33:50.20 746.406 04:26:42 Yes
61 El Dorado Loft - TX 0616-AU19-TEXS BB H 1 2019-10-27 09:33:56.10 746.316 04:26:48 Yes
62 Crazy Als Lofts - CO 5539-AU19-CRAZ BBWF H 2 2019-10-27 09:33:57.10 746.301 04:26:49 Yes
63 Bruce Daehn - FL 0130-AU19-NWFI BBWF H 2 2019-10-27 09:36:04.50 744.377 04:28:57 Yes
64 Hunsicker Ranch - CA 18518-AU19-SYV DC H 1 2019-10-27 09:44:18.40 737.010 04:37:10 Yes
65 Irishsyndicatelofts - AZ 0343-AU19-DUTC BC H 3 2019-10-27 09:46:18.10 735.247 04:39:10 Yes
66 Eastern Pearl Loft - VA 0564-AU19-EPL 🈚️量564=755x071 BB H 1 2019-10-27 09:48:13.90 733.549 04:41:06 Yes
67 Zekes - NY 70894-AU19-ARPU BBWF H 3 2019-10-27 10:00:49.00 722.666 04:53:41 Yes
68 Tim Byers - OH 9120-AU19-BUCK DC H 7 2019-10-27 10:01:43.70 721.890 04:54:36 Yes
69 Irishsyndicatelofts - AZ 0500-IF19-IRIS SILV H 4 2019-10-27 10:07:00.20 717.434 04:59:52 Yes
70 98 M J - PA 0053-AU19-AJLF BBPW H 1 2019-10-27 10:11:27.50 713.713 05:04:19 Yes
71 Crazy Als Lofts - CO 5603-AU19-CRAZ BC H 3 2019-10-27 10:13:44.40 711.822 05:06:36 Yes
72 Dons Loft - SC 2157-AU19-VITA BBWF H 1 2019-10-27 10:14:48.80 710.936 05:07:41 Yes
73 A P C Loft - TX 19071-AU19-APC BB H 1 2019-10-27 10:14:50.40 710.914 05:07:42 Yes
74 Lindbergh Flyers - MO 9533-AU19-NERP BC H 1 2019-10-27 10:20:19.10 706.426 05:13:11 Yes
75 Lazy A C Loft - IN 0451-AU19-LAZY BC H 2 2019-10-27 10:20:26.40 706.327 05:13:18 Yes
76 Genesis Syndicate Loft - AZ 0774-AU19-GENS BBPW H 2 2019-10-27 10:24:57.90 702.663 05:17:50 Yes
77 Fl/Nc Connection - FL 9522-AU19-CV BC 0 1 2019-10-27 10:25:05.10 702.567 05:17:57 Yes
78 David Martinez - NY 0424-IF19-FVC BBWF H 1 2019-10-27 10:25:14.50 702.440 05:18:07 Yes
79 Andy Owen - GA 1053-AU19-CGA BBPW H 1 2019-10-27 10:27:50.80 700.350 05:20:43 Yes
80 Country Home Aviary - NC 9106-AU19-CV Yellow 9106 BC C 1 2019-10-27 10:29:53.80 698.713 05:22:46 Yes
81 King Conch Loft - ON 0119-CU19-KING BC H 1 2019-10-27 10:34:29.70 695.071 05:27:22 Yes
82 Apple Cup - WA 2502-AU19-YAK BC H 1 2019-10-27 10:35:53.20 693.976 05:28:45 Yes
83 Tim Byers - OH 9115-AU19-BUCK SILV H 8 2019-10-27 10:35:53.90 693.966 05:28:46 Yes
84 Iditarod Loft - MT 17210-AU19-AA BB H 2 2019-10-27 10:38:56.60 691.582 05:31:49 Yes
85 Youngblood Loft - UT 0424-AU19-UCA Christianson Mercedes BB H 1 2019-10-27 10:44:08.90 687.545 05:37:01 Yes
86 Kai Loft - PA 1012-IF19-KAI DC H 1 2019-10-27 10:44:09.50 687.537 05:37:02 Yes
87 King Conch Loft - ON 0801-AU19-SMCC BBSP H 2 2019-10-27 10:44:10.50 687.525 05:37:02 Yes
88 Crazy Als Lofts - CO 5592-AU19-CRAZ BC H 4 2019-10-27 10:44:11.80 687.508 05:37:04 Yes
89 De La O/Sino/Baro - CA 9015-AU19-COOK BB H 2 2019-10-27 10:44:14.00 687.480 05:37:06 Yes
90 Country Home Aviary - NC 9124-AU19-CV Yellow 9124 BB H 2 2019-10-27 10:44:53.80 686.969 05:37:46 Yes
91 Thunder Birds/Rodriguez Breeding Loft - TX 19069-AU19-WIN H-Town Strike! BB H 2 2019-10-27 10:45:29.50 686.511 05:38:21 Yes
92 Mike Hines - SD 9156-AU19-GPF BCPW H 3 2019-10-27 10:45:40.30 686.373 05:38:32 Yes
93 Lazy A C Loft - IN 0449-AU19-LAZY BC H 3 2019-10-27 10:54:07.90 679.932 05:47:00 Yes
94 King Brand Syndicate - IA 66508-AU19-ARPU BB H 2 2019-10-27 10:56:10.40 678.396 05:49:02 Yes
95 Double J Racing Loft - OH 0002-AU19-POUS DC H 2 2019-10-27 10:56:11.50 678.382 05:49:03 Yes
96 Walters Loft - NJ 27516-AU19-ARPU Reboot BC H 2 2019-10-27 10:56:14.00 678.351 05:49:06 Yes
97 Goldstar & Angel Loft - IL 6932-AU19-STAR Gold Seeker DC H 2 2019-10-27 11:02:22.60 673.771 05:55:15 Yes
98 Youngblood Loft - UT 0335-AU19-UCA Blood Thirst BBWF H 2 2019-10-27 11:02:27.40 673.711 05:55:19 Yes
99 Salvicon - AZ 0419-AU19-RBPC BBWF H 2 2019-10-27 11:02:28.30 673.700 05:55:20 Yes
100 Cherokee Loft - MI 0510-AU19-CHEK BCWF H 3 2019-10-27 11:07:05.40 670.298 05:59:57 Yes

There are 404 bird records

Note: These Race Results are unofficial and subject to change until verified by the Race Committee and declared final.